Regional Weather Roundup
Issued by NWS

Home | Current Version | Previous Version | Text Only | Print | Product List | Glossary On
Versions: 1 2 3 4 5 6 7 8 9 10 11 12 13 14 15 16 17 18 19 20 21 22 23 24 25 26 27 28 29 30 31 32 33 34 35 36 37 38 39 40 41 42 43 44 45 46 47 48 49 50
000
ASUS42 KFFC 021010
RWRGA
WEATHER ROUNDUP FOR GEORGIA
NATIONAL WEATHER SERVICE PEACHTREE CITY GA
600 AM EDT SUN AUG 02 2015

NOTE: "FAIR" INDICATES FEW OR NO CLOUDS BELOW 12,000 FEET WITH NO
SIGNIFICANT WEATHER AND/OR OBSTRUCTIONS TO VISIBILITY.

* = USE WITH CAUTION. THE STATIONS MARKED WITH AN ASTERISK MAY NOT
REPORT WEATHER SUCH AS PRECIPITATION, FOG, OR THUNDER AND ARE NOT
QUALITY CONTROLLED BY NWS.

THE REMARK "TC" DENOTES TEMPERATURE READING IN DEGREES CELSIUS.

GAZ001>058-021100-
NORTH GEORGIA

CITY           SKY/WX    TMP DP  RH WIND       PRES   REMARKS
ATLANTA        PTCLDY    73  60  63 CALM      29.94R
ATHENS         CLEAR     69  62  78 N3        29.93R
CHAMBLEE       CLEAR     70  60  70 CALM      29.94R
PEACHTREE CITY CLEAR     67  65  93 CALM      29.94R
ROME           CLEAR     64  61  90 CALM      29.95R
WEST ATLANTA   PTCLDY    67  63  87 CALM      29.94R
GAINESVILLE    CLEAR     68  59  73 NE6       29.98S
CARTERSVILLE   CLEAR     62  60  93 CALM      29.95S


CITY           SKY/WX    TMP DP  RH WIND       PRES   REMARKS
DALTON*        PTCLDY    63  63 100 CALM      29.95S
MARIETTA       CLEAR     69  61  75 N5        29.95R
BLAIRSVILLE*     N/A     57  50  77 CALM      30.03S
$$

GAZ059>098-102>109-021100-
CENTRAL GEORGIA

CITY           SKY/WX    TMP DP  RH WIND       PRES   REMARKS
AUGUSTA-BUSH   CLOUDY    73  72  96 CALM      29.90R
AUGUSTA-DANIEL CLOUDY    76  71  85 E3        29.92R
COLUMBUS       CLEAR     73  69  87 CALM      29.89R
MACON          CLOUDY    74  72  93 NE3       29.90R
ROBINS AFB     CLOUDY    74  72  96 N1        29.89R


CITY           SKY/WX    TMP DP  RH WIND       PRES   REMARKS
LAGRANGE*      CLEAR     73  71  92 CALM      29.92S
SYLVANIA*      FOG       76  76 100 CALM      29.91R VSB 1/2
MILLEDGEVILLE* CLEAR     73  72  94 CALM      29.91R
$$

GAZ099>101-110>166-021100-
SOUTH GEORGIA

CITY           SKY/WX    TMP DP  RH WIND       PRES   REMARKS
SAVANNAH       MOCLDY    76  73  91 SW3       29.90R
VALDOSTA       CLOUDY    77  75  93 SE7       29.84F
ALMA           CLOUDY    76  74  93 SE3       29.87S
ST SIMONS      MOCLDY    77  73  87 S3        29.88S
ALBANY         CLOUDY    75  73  93 E5        29.88R FOG
HUNTER AFB     PTCLDY    76  76 100 SW5       29.87S
MOODY AFB      CLOUDY    76  74  93 SE5       29.84S
BRUNSWICK      CLOUDY    79  73  83 S5        29.89S


CITY           SKY/WX    TMP DP  RH WIND       PRES   REMARKS
BAINBRIDGE*    CLOUDY    77  75  94 E7        29.85R
MOULTRIE*      CLOUDY    77  73  88 CALM      29.85S
VIDALIA*       FOG       75  73  94 CALM      29.89S VSB 1/2
WAYCROSS*      CLOUDY    79  77  94 S5        29.87S
DOUGLAS*       CLOUDY    77  77 100 CALM      29.89S
$$



USA.gov is the U.S. government's official web portal to all federal, state and local government web resources and services.